GFSNW_850_dewp_024.txt.gz
Dewpoint
1 -0 -1 -1 1 4 6 4 4 3 3 4 2 7 3 -0 -1 -4 -3 -4 -7 -6 -5 -5 -6 -6 -6 -6 -6 -2 -5 -3 5 -2 -4 -3 -3 -0 -3 9 4 7 9 3
1 -1 -1 -2 1 4 6 3 4 6 3 4 7 5 3 -0 -1 -2 -1 -2 -4 -7 -5 -3 -5 -6 2 0 -1 -1 -1 -0 4 -0 -1 -2 -1 -3 -5 -1 5 6 10 4
0 -0 -0 -1 0 4 5 2 6 9 8 -0 3 6 2 1 -1 -3 -3 -2 -5 -5 -5 -5 -3 -3 2 1 0 -0 1 -1 -1 5 -0 -0 2 -1 -4 -2 9 6 4 -3
0 0 -0 0 -0 3 5 3 4 6 9 7 4 5 2 1 -0 -4 -2 -2 -5 -2 0 -2 0 -1 3 2 2 -0 0 2 -0 -2 -3 -1 -0 -2 -3 -3 -1 3 1 -3
0 0 -1 -0 1 3 5 4 3 5 4 4 5 5 4 1 -2 -1 0 -0 -4 -2 0 -1 -0 -1 3 2 3 1 1 5 4 5 1 -0 0 -2 -3 -4 -6 -5 -5 -4
0 -1 -3 -1 1 3 4 4 4 3 4 5 6 6 4 2 -1 -2 -3 -2 -1 -1 1 1 3 3 1 0 4 4 5 9 7 5 0 1 3 3 -2 -4 -5 -5 -2 -3
-0 -3 -2 -1 2 2 4 4 5 4 6 4 5 4 3 -1 -1 2 -0 -1 1 4 2 2 2 1 1 2 2 2 8 7 8 8 5 6 -5 -7 -7 -6 -7 -9 -10 -8
-2 -3 -2 0 1 2 4 4 6 6 8 4 3 3 2 -2 -3 1 1 5 5 3 3 6 6 8 6 3 -0 -0 2 7 8 10 5 -0 -3 -6 -6 -5 -4 -6 -6 -6
-3 -3 -2 -2 1 3 4 5 6 8 6 6 1 1 0 3 7 6 5 4 3 3 8 10 7 8 3 5 4 -2 -0 5 8 6 9 9 1 -4 -4 -5 1 -4 -4 -3
-3 -2 -1 -2 1 3 4 5 6 9 6 3 1 1 2 -1 5 6 5 5 5 5 11 10 10 8 1 7 7 7 7 8 8 8 9 7 -3 -4 -3 1 5 -2 -2 -2
-3 -2 -2 -1 2 3 4 4 7 8 6 1 1 -2 -3 2 4 8 5 6 5 9 10 11 10 10 8 6 1 6 6 9 9 9 9 8 -5 -3 2 3 -1 -2 -2 -2
-1 -1 -0 -0 2 3 4 6 6 9 10 7 5 3 0 -0 2 5 5 4 5 6 8 9 11 8 7 7 8 -2 6 5 8 5 7 -1 -5 -4 -4 -3 -2 -2 -1 -1
-0 -0 -0 3 4 4 4 4 5 9 7 7 4 7 3 -0 2 5 5 5 3 4 5 10 11 8 9 9 9 5 0 -0 5 3 -4 -4 -4 -4 -3 -1 0 1 1 1
1 1 0 3 4 3 4 5 7 9 5 9 9 7 5 2 4 5 5 6 4 6 6 10 7 9 5 10 8 9 3 -0 0 1 -1 -2 -2 1 2 3 3 4 4 3
1 2 3 3 3 3 4 5 8 8 4 8 8 7 6 2 2 4 5 6 5 7 8 6 11 6 8 7 7 8 1 0 6 7 2 3 3 3 3 2 2 1 1 -0
4 3 3 3 3 4 6 7 6 4 7 7 9 7 7 6 6 6 6 6 5 5 8 9 5 4 6 9 8 1 2 2 3 3 3 4 3 2 1 1 1 1 1 1
4 3 3 3 3 5 7 5 4 4 6 7 8 7 7 7 7 7 7 6 6 6 7 8 6 4 6 7 8 3 2 2 3 2 3 3 2 2 2 1 1 1 -0 -1
3 3 3 3 3 6 7 4 4 4 5 7 8 6 7 7 8 8 8 8 7 7 6 6 7 6 7 9 3 2 2 2 2 1 2 2 1 1 1 0 -0 -1 -1 -2
2 4 4 5 5 6 5 4 5 4 4 7 7 7 8 6 6 6 7 7 8 6 6 7 6 6 7 4 2 2 2 3 2 1 1 1 1 0 -0 -1 -2 -2 -2 -2
5 5 4 5 6 4 3 3 5 3 3 6 5 6 7 6 5 5 5 5 6 6 6 5 6 6 2 1 1 2 1 2 1 1 1 0 -0 -1 -1 -2 -1 -1 -3 -6
4 4 5 6 4 3 4 4 5 4 6 4 4 4 6 6 7 6 5 6 6 6 6 6 6 5 1 1 1 1 1 1 1 1 0 -0 -1 -2 -1 -3 -7 -10 -13 -14
3 4 3 2 3 3 4 5 4 6 6 3 4 4 4 4 5 4 4 4 4 5 4 6 5 2 1 1 1 1 0 0 -0 -1 -2 -2 -2 -3 -5 -12 -13 -11 -11 -11
3 2 2 3 4 5 6 5 5 4 2 2 3 3 4 4 4 3 4 4 6 2 5 4 3 1 1 1 0 -1 -1 -1 -2 -3 -4 -4 -7 -12 -13 -12 -9 -7 -9 -11
2 3 3 3 4 2 2 2 2 0 1 3 3 3 3 3 3 4 4 3 3 5 5 4 1 0 -0 0 -1 -1 -3 -4 -4 -5 -10 -12 -12 -11 -10 -10 -10 -11 -13 -14
1 1 2 1 -1 -1 -1 -1 -0 0 2 3 4 4 4 3 3 4 3 4 5 4 4 2 0 -0 -0 -1 -1 -3 -5 -4 -5 -9 -10 -10 -9 -9 -10 -10 -11 -12 -13 -15
-1 -1 0 -0 0 -0 -1 -1 -0 1 2 3 3 4 4 3 4 5 4 5 5 3 1 -1 -1 -1 -0 -1 -3 -6 -3 -2 -3 -8 -8 -8 -7 -8 -9 -10 -11 -12 -13 -15
-1 -1 -1 -1 -1 -1 -1 -1 -0 1 0 1 2 3 2 2 4 3 2 2 1 -1 -1 -1 -1 -1 -1 -2 -3 -2 -3 -3 -4 -7 -7 -6 -6 -8 -9 -9 -11 -13 -12 -14

GFSNW_850_dewp_030.txt.gz
Dewpoint
-2 -1 -2 -5 -0 1 1 4 5 4 5 4 4 6 4 2 3 3 4 2 2 -2 -2 -2 -3 -3 -5 -2 2 1 3 4 5 2 -0 0 -1 0 2 3 -0 4 4 2
-3 -2 -3 -6 -1 -0 1 3 4 4 5 4 3 3 4 3 2 3 4 2 0 -2 0 -0 1 -0 2 1 1 1 2 2 3 2 -1 -1 0 -1 -0 3 2 3 3 2
-3 -3 -4 -6 -0 -1 2 4 5 5 6 3 -0 3 5 5 2 3 4 4 2 0 0 1 2 3 2 2 1 1 -0 1 0 2 -1 -1 1 2 1 2 4 3 3 1
-3 -5 -6 -5 0 -1 1 4 3 3 5 5 0 1 2 4 2 3 2 3 4 3 1 2 2 4 3 3 -0 0 -0 1 0 -0 2 2 -0 1 1 1 1 2 1 1
-5 -7 -7 -4 0 1 2 4 4 3 5 3 3 1 1 1 -0 2 2 4 3 2 -0 -0 3 4 4 2 2 0 2 3 3 2 1 -0 -1 -1 -1 -1 -1 1 -1 -1
-7 -7 -5 -3 0 1 2 2 3 3 4 4 4 2 1 -1 -1 2 0 1 2 2 0 0 -0 0 1 3 3 3 3 3 2 3 0 -2 1 -2 -2 -1 -1 -2 -1 -2
-7 -6 -5 -1 0 1 1 1 4 4 5 5 5 2 0 0 1 1 1 -0 2 1 1 2 2 2 3 4 6 4 3 3 2 3 -0 0 -0 -3 -4 -2 -3 -3 -2 -3
-7 -4 -2 -1 -0 1 2 3 3 5 3 5 5 3 1 -0 1 4 1 3 1 1 1 4 4 3 2 1 4 5 4 4 5 2 2 1 -2 -3 -4 -3 -0 -2 -2 -2
-4 -3 -3 -2 -1 1 1 2 3 4 6 5 5 4 1 1 4 3 5 4 3 3 5 3 4 4 3 4 2 1 3 1 2 4 2 0 -1 -2 -4 -3 3 -1 -1 -0
-4 -5 -4 -4 -0 0 0 2 2 2 4 5 4 4 2 -0 5 5 7 5 5 5 4 4 4 5 3 5 4 2 2 2 1 1 1 1 -0 -2 -4 -4 -2 -1 -1 -1
-6 -5 -4 -3 0 1 1 2 2 2 4 4 6 2 -0 2 4 6 6 6 6 4 5 5 4 2 4 4 4 4 3 3 3 4 3 3 -0 -3 -2 -2 -0 -2 -1 -1
-4 -4 -2 -1 1 1 1 1 1 3 2 5 5 5 2 -0 3 4 6 4 5 5 6 6 4 4 3 3 5 3 2 2 3 3 3 0 -3 -2 -1 -2 -1 1 1 2
-4 -3 -1 0 1 1 -0 1 1 2 3 4 5 5 7 3 1 3 4 5 4 5 3 5 5 3 2 4 3 3 2 3 3 2 2 2 1 -1 -0 -0 1 3 3 3
-1 -2 -0 0 0 -1 -0 0 -0 3 4 5 6 7 7 5 2 3 3 1 2 4 6 4 3 4 3 2 2 2 2 1 2 2 4 4 4 3 2 2 2 2 2 2
0 -1 -2 -3 -3 -2 -0 1 1 4 5 5 5 7 8 6 5 3 2 2 2 4 2 2 2 3 4 1 1 2 1 1 2 2 2 2 3 2 2 2 1 1 1 0
-2 -3 -3 -2 -1 -1 1 2 2 2 4 4 4 7 7 8 7 5 3 3 4 3 4 4 5 6 3 2 1 2 3 1 -1 4 3 2 2 1 1 1 1 1 1 -0
-3 -3 -2 -1 0 2 2 2 3 2 3 3 4 5 7 8 8 9 8 6 7 6 7 6 4 5 3 0 3 3 3 3 3 3 2 2 1 1 1 1 1 -0 -1 -2
-1 -0 -0 1 2 2 1 2 4 5 4 4 4 5 6 6 7 7 8 7 7 6 6 7 3 6 3 3 3 3 3 3 3 2 3 2 2 1 0 -0 -2 -3 -3 -4
-1 -0 1 2 4 3 2 1 5 4 5 5 3 5 6 6 6 6 7 6 4 5 3 4 3 3 3 3 2 2 2 2 2 2 2 1 1 0 -1 -2 -3 -4 -3 -4
0 1 2 2 3 3 3 4 5 5 6 4 3 5 5 5 4 4 4 4 3 4 3 4 2 3 2 2 2 2 2 2 2 1 0 0 -1 -1 -3 -3 -3 -3 -3 -4
2 4 4 4 3 3 4 4 3 3 2 3 4 5 5 6 4 3 4 3 1 3 3 3 3 3 1 2 2 2 2 2 1 1 1 0 -0 -2 -2 -2 -3 -4 -8 -13
5 4 4 3 4 3 2 2 2 2 3 2 3 4 5 5 4 3 3 3 1 3 3 2 5 2 2 2 2 2 1 1 1 1 -0 -1 -1 -2 -2 -3 -8 -12 -14 -13
4 3 3 2 1 2 1 3 3 2 1 2 3 2 4 3 3 2 2 3 3 1 3 3 1 1 1 1 1 1 1 1 0 -0 -1 -1 -2 -5 -5 -11 -12 -13 -13 -16
1 0 1 1 1 0 0 1 1 0 1 3 3 2 2 3 2 1 3 2 2 2 2 1 1 1 0 -0 0 0 -0 -0 -1 -1 -1 -3 -5 -9 -10 -11 -12 -13 -15 -16
-1 -1 0 -0 -1 -1 -1 -0 0 1 2 3 3 2 2 1 2 1 2 3 3 1 2 1 1 1 -0 -1 -1 -1 -2 -2 -2 -3 -6 -7 -5 -7 -8 -9 -12 -14 -14 -14
-2 -2 -1 -1 -1 -1 -1 -0 -0 1 2 3 2 1 1 2 2 2 2 2 2 1 -1 -0 0 -0 -1 -1 -2 -2 -2 -4 -7 -8 -5 -7 -10 -10 -11 -12 -13 -13 -13 -13
-2 -2 -2 -1 -1 -1 -1 -1 -1 1 1 1 1 1 1 1 1 0 -0 -0 -1 -1 -1 -1 -0 -1 -1 -1 -2 -2 -4 -6 -3 -4 -7 -9 -10 -11 -11 -11 -11 -11 -11 -12

GFSNW_850_dewp_036.txt.gz
Dewpoint
1 -0 -3 -4 1 0 -1 2 1 -0 1 5 4 5 2 1 3 2 3 4 5 1 -1 -2 -2 -2 -4 -6 -1 -1 0 -0 0 0 -0 -1 -1 -0 0 3 1 3 3 2
1 -0 -2 -4 0 -0 -0 1 1 3 2 5 4 2 2 2 2 2 3 4 4 1 -1 -3 -2 -2 -5 -3 -1 1 2 1 3 1 -1 -2 0 0 1 1 1 3 3 2
1 0 -1 -2 1 -0 -1 1 1 4 4 2 1 2 3 2 1 1 1 4 4 3 2 -0 -2 -2 2 0 -1 -1 -1 1 0 2 0 -1 0 1 2 1 3 3 2 -0
1 0 -1 -1 1 -0 -2 1 -0 2 3 3 3 1 1 3 2 1 2 3 4 3 4 1 2 3 3 1 2 0 -1 -0 -0 -1 -2 -1 -0 0 2 1 1 2 1 1
1 0 -1 -1 0 -0 0 1 1 1 2 1 2 3 2 3 2 3 2 3 3 4 5 1 1 3 3 2 1 1 0 1 -1 2 0 0 1 -0 -0 1 1 1 0 0
1 0 -1 -1 1 -0 -0 -0 0 2 0 2 2 2 2 1 1 1 2 1 0 3 1 0 -0 -0 1 1 2 2 1 2 2 2 -0 -1 2 -0 -1 -1 -1 -0 1 -1
1 0 -1 0 -0 -1 -2 -1 1 3 3 3 2 0 1 1 1 2 1 2 1 -1 1 1 2 2 3 3 4 1 1 1 1 2 0 1 -1 -3 -3 -2 -2 -3 -3 -3
1 -0 -1 -0 -1 -3 -2 -1 1 2 3 2 2 1 0 1 0 2 1 -0 -1 0 1 4 4 3 3 3 3 2 1 1 2 3 3 -0 -2 -2 -2 -2 -3 -3 -2 0
0 -0 -0 -0 -2 -3 -2 -1 -2 1 3 3 1 2 0 1 1 1 0 -1 -1 -0 3 3 6 7 5 5 4 1 0 0 2 1 2 2 0 -3 -4 -4 -0 -2 -1 1
-0 -0 -0 -1 -1 -2 -3 -4 -2 1 1 2 3 2 2 0 0 1 1 0 2 1 0 2 3 5 3 6 6 4 3 2 2 0 1 2 -1 -4 -4 -1 -0 -2 -1 -0
-0 -0 -1 -3 -2 -2 -3 -4 -3 0 1 1 3 2 1 1 1 2 2 4 4 3 4 4 3 2 3 3 3 4 5 5 3 1 1 4 -3 -2 -1 -2 -4 -3 -2 -1
-1 -1 -1 -1 -2 -1 -1 -3 -5 -1 1 1 3 4 4 2 0 0 1 1 5 4 5 3 3 2 1 3 4 1 3 3 4 3 3 -0 -2 -2 -4 -5 -3 -2 -2 -1
-1 -1 -2 -4 -4 -4 -6 -6 -5 0 1 2 2 2 3 4 3 0 0 2 3 4 2 4 4 4 2 4 3 3 2 0 1 1 0 0 1 -1 -2 -3 -3 -2 -2 -2
-2 -3 -4 -4 -6 -5 -3 -3 -1 1 2 2 2 4 4 4 4 3 1 2 1 4 5 4 4 4 2 2 3 3 2 1 2 2 3 3 2 0 -1 -1 -1 -2 -1 -1
-5 -5 -6 -4 -4 -2 -2 -3 1 1 1 2 2 2 3 6 7 5 3 1 3 5 4 2 4 3 3 1 3 2 2 2 3 2 1 0 -1 -1 -1 -1 -0 0 0 2
-2 -2 -2 -2 -2 -2 -1 -0 0 1 1 2 2 2 3 6 7 7 4 2 4 4 3 3 4 5 4 4 3 1 1 0 -1 -0 0 0 -1 0 1 1 2 2 2 2
-5 -4 -4 -4 -3 -0 -1 -0 -0 1 1 2 2 1 4 6 7 8 7 6 5 5 5 4 4 5 2 1 3 0 1 1 0 0 1 1 1 1 1 1 1 1 1 1
-6 -4 -3 -1 0 -0 -2 -3 1 -1 -0 -1 2 3 3 6 6 6 7 6 6 6 5 4 3 4 1 3 2 3 3 2 2 2 1 0 1 1 1 1 0 -0 -1 -1
-2 -0 -0 0 -0 -1 -2 -2 1 -0 -1 2 3 4 4 4 5 5 6 6 3 5 3 3 4 2 4 2 3 3 2 2 2 2 1 1 1 1 1 0 -0 -0 -2 -2
-1 -1 -2 -1 -3 -0 1 2 2 2 1 2 2 4 3 4 3 3 3 3 3 3 3 4 3 3 2 2 3 3 2 2 2 1 0 1 0 1 0 0 -0 -0 -1 -2
-1 -0 0 -0 -2 2 2 1 2 2 2 3 3 4 4 4 3 3 3 3 2 5 4 5 4 4 1 3 2 3 2 2 2 2 1 1 1 1 -0 -1 -2 -2 -3 -4
0 2 2 2 2 1 1 1 1 1 3 2 2 4 4 4 3 2 2 3 2 5 2 4 5 2 1 2 2 2 2 2 2 2 1 1 0 -0 -1 -2 -3 -3 -3 -5
2 3 2 1 -0 2 2 3 3 3 0 2 2 2 3 4 3 1 2 4 4 1 4 4 2 1 1 1 2 1 1 1 1 1 0 -0 -1 -2 -1 -1 -2 -4 -4 -8
1 1 -0 0 0 -0 -0 -0 0 -0 -0 1 2 1 1 2 2 1 3 2 2 3 3 2 1 0 -0 1 1 1 0 0 0 -0 -1 -1 -0 -1 -2 -3 -4 -7 -11 -6
-1 -0 -0 -0 -1 -1 -1 -1 -0 -0 1 2 2 2 2 1 2 1 2 3 2 1 1 -0 -1 -0 -0 -0 0 -0 -0 0 0 0 -0 -1 -2 -3 -4 -4 -7 -7 -8 -14
-2 -2 -2 -2 -1 -2 -2 -2 -1 0 1 1 1 1 2 1 -0 -2 -1 1 -1 -1 -2 -2 -1 -1 -1 -1 -1 -1 -1 -1 -2 -2 -2 -2 -3 -4 -5 -6 -8 -10 -12 -14
-3 -2 -5 -4 -3 -4 -4 -4 -3 -0 0 0 -0 -2 -2 -3 -2 -4 -4 -3 -3 -4 -3 -2 -2 -2 -2 -2 -2 -2 -2 -2 -3 -3 -3 -4 -5 -5 -5 -7 -12 -14 -15 -15

GFSNW_850_dewp_042.txt.gz
Dewpoint
2 2 1 1 1 1 -0 -0 2 1 -1 2 2 3 0 -4 -3 -0 1 2 4 2 -0 -2 -2 -3 -4 -5 -5 -2 -3 -2 2 -1 -1 -2 -3 -2 -1 2 1 2 4 1
2 2 2 1 1 1 0 -0 1 0 -0 1 2 0 -0 -3 -1 -2 2 3 3 3 3 1 -2 -3 -5 -5 -3 -3 -1 -1 2 -0 -1 -1 -1 -2 -2 0 2 3 7 1
-3 2 1 2 1 1 0 -0 1 2 2 -3 -1 -0 0 -1 -2 -3 0 1 2 4 4 1 -0 -2 -1 -2 -4 -3 -2 -2 -1 1 -2 -4 -0 -1 -1 0 4 2 3 -1
-5 -0 1 2 2 0 0 1 1 1 2 1 -2 -2 -3 -1 -0 -1 -1 2 3 3 4 3 2 -1 1 0 -0 -3 -1 -1 -1 -4 -6 -6 -5 -5 -1 0 0 1 0 -2
-3 -3 1 2 2 0 0 0 1 0 -2 -1 -1 -0 0 -2 -2 -2 -1 2 2 2 2 1 2 3 3 -1 2 -0 -1 -1 0 -0 -3 -3 -3 -4 -4 -2 -3 -1 -1 -2
-1 -3 -2 2 1 0 -0 0 -0 -2 -2 -1 -0 1 -1 -1 -2 -3 -5 -3 -2 2 2 2 2 2 1 0 3 3 2 1 1 -0 -0 -1 3 1 -2 -2 -1 -1 -0 -3
-1 -2 -4 -0 1 0 -0 -1 0 0 -0 -0 -1 -2 -3 -3 -3 -0 -3 -4 -0 -1 1 -0 -0 1 3 2 -0 1 4 3 3 3 5 8 -3 -2 -3 -2 -2 -3 -2 -4
-0 -1 -4 -2 1 0 0 -1 0 -2 2 -1 -2 -2 -3 -4 -3 -2 -2 -0 -1 -1 -1 -0 0 1 1 3 3 3 2 3 5 9 4 -1 -1 -2 -1 -0 -2 -4 -4 -4
-0 -1 -4 -3 0 0 0 -0 -1 0 1 -1 -4 -1 -3 -1 -0 1 -1 -2 1 1 4 4 4 -2 -2 3 4 1 2 3 6 4 5 7 -2 -3 -3 -3 2 -5 -4 -3
-0 -1 -3 -2 0 0 0 -0 -1 -0 -2 -4 -3 0 -0 -3 -2 1 -1 1 2 1 5 8 4 2 -3 2 7 6 5 5 7 6 7 3 -1 -3 -3 2 2 -3 -4 -3
-1 -2 -3 1 0 -0 -0 -0 -1 0 0 0 1 1 -0 -2 -2 1 -1 1 3 4 5 4 3 7 5 1 2 5 5 6 8 5 9 8 -2 -2 0 -0 0 -2 -1 -1
-2 -1 -2 0 -0 -0 -0 -0 -1 -1 -0 1 2 0 3 3 -3 -2 0 -2 -0 1 3 4 3 8 7 4 6 3 6 4 5 3 4 0 -2 -2 -2 0 -2 -1 -1 -0
-1 -1 0 -0 -0 -0 -0 -0 0 -0 0 0 -0 0 0 2 1 1 -1 -1 -3 -0 0 4 6 8 6 9 5 3 3 2 6 4 -0 1 0 -1 -1 -1 -1 -1 -1 1
-0 1 0 -0 0 -0 -0 -0 -1 -2 -2 -1 -3 -0 1 1 3 3 2 1 -0 2 1 4 6 8 2 6 2 5 1 2 3 3 1 1 1 1 -1 -0 -1 -3 -1 1
0 0 -0 0 -0 -1 -1 -2 -3 -3 -4 -0 -3 -2 -1 1 2 3 3 2 3 1 5 5 5 2 4 4 4 6 1 2 5 6 1 1 -1 0 1 0 -2 -3 -1 1
0 -0 -0 -0 -1 -1 -1 -1 -2 -3 -2 -2 2 2 -1 -2 -0 3 4 3 2 2 2 4 3 4 4 8 5 -1 -1 1 1 0 -1 -1 -0 -2 -1 1 1 0 0 1
0 0 -0 -0 -0 -0 -1 -2 -2 -4 -3 -3 -0 1 2 1 2 4 5 3 2 2 3 4 3 5 4 7 7 -1 -0 0 0 -0 -1 0 -1 -0 -2 -2 1 -0 1 0
-0 -0 -0 -1 -2 -4 -3 1 -0 -5 -2 -3 1 2 3 4 5 5 5 5 5 4 3 4 4 5 5 6 2 2 1 1 2 1 0 0 -0 -1 0 -1 -1 -0 -0 -0
-2 -2 -2 -3 -3 -4 0 -1 -2 -4 1 1 1 3 5 4 4 5 5 5 6 5 6 5 5 6 6 3 3 2 3 3 3 1 1 0 0 0 -0 0 0 0 -0 -0
-5 -4 -3 -1 -1 -1 1 0 -0 1 1 1 2 1 2 2 3 5 4 3 4 6 6 5 7 6 3 3 3 3 3 2 2 2 1 1 1 0 -0 -0 -0 -0 -1 -1
-2 -1 -0 -0 -2 -0 1 0 1 1 2 1 2 2 1 2 5 5 4 4 2 6 6 7 7 6 2 2 3 2 2 2 2 2 1 1 1 0 -0 -0 -0 -1 -1 -2
0 0 -0 -1 1 1 1 1 1 2 2 3 3 2 1 2 4 4 4 5 4 6 3 7 6 2 0 1 1 1 2 1 1 1 1 1 0 -0 -1 -1 -1 -1 -1 -2
1 -1 1 1 1 2 2 3 3 3 1 1 2 3 3 3 3 3 3 5 6 2 4 2 0 -1 -1 -1 -1 -0 1 1 1 1 1 0 -1 -1 -1 -1 -2 -2 -3 -3
-0 0 0 1 0 0 0 -0 1 -0 -1 0 1 1 2 2 2 1 5 2 2 4 3 0 -2 -2 -2 -2 -2 -1 -2 -1 -1 -1 -1 -2 -2 -3 -3 -3 -3 -3 -4 -4
-2 -2 -1 -1 -2 -4 -4 -4 -2 -2 -1 -0 1 1 1 1 2 1 2 2 1 -1 -2 -3 -4 -3 -4 -4 -4 -4 -3 -3 -4 -4 -3 -4 -4 -4 -4 -4 -4 -4 -5 -5
-5 -7 -5 -6 -4 -5 -6 -6 -5 -4 -1 -0 -0 1 1 -1 -2 -2 -2 -2 -4 -4 -6 -6 -5 -5 -5 -5 -5 -5 -5 -5 -4 -4 -4 -4 -4 -4 -5 -5 -5 -6 -6 -6
-5 -6 -7 -7 -7 -7 -7 -6 -6 -4 -2 -1 -4 -4 -3 -4 -4 -5 -6 -6 -6 -7 -8 -8 -6 -6 -6 -6 -6 -6 -5 -5 -5 -5 -5 -6 -6 -6 -6 -7 -7 -7 -8 -8

GFSNW_850_dewp_045.txt.gz
Dewpoint
2 2 1 1 1 1 1 1 2 -0 -1 2 2 2 -1 -3 -7 -8 -9 -5 -4 -5 -0 -2 -5 -3 -5 -7 -7 -3 -5 -2 2 1 -2 -4 -3 -2 -1 2 2 1 3 2
0 1 2 2 1 1 1 1 1 0 1 2 3 -1 -1 -3 -4 -6 -7 -3 -1 -2 -1 1 -2 -4 -4 -5 -5 -3 -4 -2 2 0 -1 -2 -1 -2 -3 -1 -1 2 8 3
-3 -1 2 2 2 2 1 1 2 2 2 -1 -2 -2 -2 -4 -3 -4 -8 -4 -3 -1 2 -0 0 -2 -3 -3 -4 -5 -3 -3 -0 2 1 -2 -1 -3 -4 -2 4 2 1 -2
-1 -5 -3 1 2 2 1 1 2 2 2 2 -0 -3 -5 -5 -4 -3 -4 -5 -3 -4 0 -0 0 -1 0 -0 -2 -2 -1 -1 -2 -3 -3 -4 -4 -3 -4 -3 -3 1 -1 -3
-1 -1 -4 -5 1 2 1 0 -1 -0 -1 0 -1 -2 -3 -6 -6 -6 -4 -3 -2 -2 -2 -2 0 -0 0 -0 -2 -0 -2 0 -1 -2 -3 -4 -4 -6 -7 -7 -5 -4 -5 -4
-3 -2 -2 -4 -1 2 1 -0 -2 -2 -2 1 0 -0 -3 -6 -7 -7 -7 -6 -4 -1 -3 1 2 2 2 1 2 2 -1 2 1 3 -2 -2 2 -3 -5 -6 -7 -4 -2 -4
-2 -2 -1 -2 -1 1 1 -0 -2 -1 1 1 -0 -3 -4 -6 -7 -4 -6 -6 -3 -4 -2 1 0 0 0 1 1 -0 2 2 2 5 5 7 -2 -5 -6 -5 -6 -7 -6 -5
-1 -2 -2 -1 -3 1 1 -0 -2 -1 3 -2 -2 -3 -4 -6 -7 -4 -6 -6 -4 -5 -0 0 0 1 -0 -1 1 0 -0 4 5 7 5 0 -4 -4 -3 -4 -4 -7 -6 -6
-0 -0 -1 -1 -3 -2 1 -0 -2 -1 1 0 -4 -3 -4 -3 -3 -2 -3 -6 -4 -1 0 1 1 -6 -5 -2 4 2 2 2 7 5 6 6 -0 -4 -6 -6 1 -6 -7 -6
-1 0 -1 -1 -2 -2 -0 1 -1 -0 -0 -2 -3 -2 -3 -5 -4 -1 -2 -4 0 0 4 6 3 -3 -10 -4 6 6 6 6 9 7 6 2 -4 -6 -6 2 1 -5 -6 -6
-1 -1 -0 -0 -1 -1 0 0 -0 0 -1 -1 -1 -1 -0 -4 -4 0 -3 -1 1 4 5 4 1 2 -2 -3 -7 2 6 6 8 7 8 8 -2 -2 -0 -1 -3 -2 -2 -5
0 0 -0 -0 -2 0 0 1 0 -0 0 2 3 3 3 1 -4 -4 -2 0 1 -1 2 2 -1 5 8 -1 4 -6 5 4 6 3 4 1 -1 -2 -2 -4 -4 -1 -2 -3
-0 -0 -0 -1 -2 0 0 1 1 -0 1 2 0 -0 1 0 1 3 0 -1 -3 -3 -3 -1 2 4 6 7 5 -2 -3 1 5 3 1 0 1 -0 -1 -1 -1 -1 -1 -2
-0 0 -2 -2 -1 -0 0 1 0 0 1 2 -1 -1 -0 1 -0 2 4 4 -2 -3 -2 2 4 5 -4 5 2 3 -0 2 3 2 -1 -1 -2 0 1 -0 -0 -1 -1 -2
-2 -3 -2 -1 -0 -0 0 0 -0 0 -1 -1 -3 -3 0 3 -2 1 4 4 3 0 3 6 5 -0 -1 1 3 4 -3 1 5 4 -2 1 2 0 -0 1 0 1 0 -1
-2 -0 1 -0 -0 0 -0 -0 0 0 0 -2 2 -0 -3 -1 1 2 3 3 3 1 -1 4 -0 -3 -2 5 4 -3 -6 -2 -1 -0 0 1 0 1 0 -0 0 0 1 -0
1 0 -0 -0 -0 -0 -0 0 -1 -0 -1 -3 -2 -0 -0 -1 -0 2 2 3 2 3 1 2 2 -0 3 6 6 -3 -6 -7 -8 -3 -1 2 0 0 -0 0 1 1 1 0
-0 -0 -1 -0 -0 -0 -0 -2 -1 -1 -3 -3 -2 0 2 2 2 2 3 3 3 2 2 1 3 2 3 5 -0 -2 -2 -1 1 2 3 3 2 1 1 1 2 2 1 1
-1 -1 -0 -0 -0 -0 0 -1 -2 -1 -3 -3 -0 1 3 2 3 3 4 3 4 1 4 4 2 5 6 3 -1 -1 3 3 3 3 3 2 2 1 1 1 0 1 1 1
-0 -1 -2 -1 -0 -0 -2 0 0 -1 -1 1 2 -0 2 0 3 3 4 5 5 5 5 2 4 4 2 2 3 3 3 3 3 3 3 2 2 2 1 1 1 1 0 0
-1 -0 0 -1 -0 0 1 0 0 0 2 -0 0 1 1 2 3 4 4 4 4 6 6 7 6 5 0 -1 2 3 3 3 2 2 2 2 2 2 1 1 1 1 0 -0
0 0 -0 -0 1 0 1 0 1 1 1 2 2 2 1 2 2 4 4 4 4 6 4 7 3 -1 -2 -2 -1 -1 0 1 1 1 1 1 1 1 1 0 -0 -0 -0 -1
0 -1 0 0 1 2 1 2 4 3 1 1 3 3 2 2 2 4 4 6 5 1 3 1 -0 -3 -3 -3 -3 -2 -2 -1 -1 -1 -1 -1 -1 -1 -1 -2 -2 -3 -3 -4
-0 1 1 2 2 0 -1 -1 0 -1 -1 -1 1 1 2 2 3 1 5 2 3 4 3 0 -3 -3 -3 -4 -4 -4 -5 -4 -4 -4 -4 -4 -4 -5 -5 -5 -5 -4 -5 -6
-3 -4 -2 -2 -3 -4 -4 -3 -2 -2 -2 -1 1 1 1 1 2 1 4 3 0 -1 -2 -4 -5 -4 -5 -5 -5 -5 -6 -6 -6 -6 -6 -6 -6 -6 -6 -6 -5 -5 -5 -5
-5 -7 -6 -7 -4 -5 -6 -5 -4 -4 -3 -1 -0 1 1 -1 -2 -2 -2 -2 -3 -4 -5 -6 -5 -5 -6 -6 -6 -6 -6 -7 -7 -7 -7 -7 -6 -6 -6 -6 -6 -6 -6 -7
-5 -6 -7 -7 -7 -7 -7 -6 -5 -4 -3 -0 -1 -3 -2 -2 -3 -5 -6 -6 -6 -7 -8 -7 -8 -8 -7 -7 -7 -7 -7 -7 -7 -7 -7 -7 -7 -7 -7 -8 -8 -8 -8 -8